• In Austria
  • List of Countries
  • For 7 days
  • Water Temperature
  • Satellite Maps
  • Weather Map
  • News
  • Weather Widgets
  • user-avatar
    Login

    Hourly Weather Luanda

    Today, 18 October, Wednesday

    Time Temperature Precipitation Wind Pressure Humidity
    00:00 +26°C° 0 mm 4 mps 755 mmHg 78%
    01:00 +27°C° 0 mm 3 mps 755 mmHg 79%
    02:00 +26°C° 0.1 mm 3 mps 755 mmHg 79%
    03:00 +26°C° 0.1 mm 3 mps 755 mmHg 79%
    04:00 +26°C° 0.1 mm 3 mps 755 mmHg 79%
    05:00 +26°C° 0 mm 3 mps 755 mmHg 79%
    06:00 +26°C° 0 mm 2 mps 755 mmHg 79%
    07:00 +26°C° 0 mm 2 mps 756 mmHg 79%
    08:00 +27°C° 0 mm 2 mps 756 mmHg 77%
    09:00 +27°C° 0 mm 2 mps 756 mmHg 75%
    10:00 +27°C° 0 mm 2 mps 756 mmHg 74%
    11:00 +28°C° 0 mm 2 mps 755 mmHg 70%
    12:00 +29°C° 0 mm 2 mps 755 mmHg 67%
    13:00 +29°C° 0 mm 3 mps 754 mmHg 64%
    14:00 +30°C° 0 mm 3 mps 754 mmHg 62%
    15:00 +30°C° 0 mm 3 mps 753 mmHg 61%
    16:00 +32°C° 0 mm 4 mps 753 mmHg 59%
    17:00 +29°C° 0 mm 3 mps 753 mmHg 64%
    18:00 +28°C° 0 mm 3 mps 754 mmHg 70%
    19:00 +27°C° 0 mm 3 mps 754 mmHg 76%
    20:00 +27°C° 0 mm 3 mps 755 mmHg 77%
    21:00 +26°C° 0 mm 3 mps 755 mmHg 78%
    22:00 +26°C° 0 mm 2 mps 756 mmHg 80%
    23:00 +26°C° 0 mm 2 mps 755 mmHg 81%

    Tomorrow, 19 October, Thursday

    Time Temperature Precipitation Wind Pressure Humidity
    00:00 +26°C° 0 mm 2 mps 755 mmHg 82%
    01:00 +26°C° 0 mm 2 mps 755 mmHg 83%
    02:00 +26°C° 0 mm 2 mps 754 mmHg 83%
    03:00 +26°C° 0 mm 2 mps 754 mmHg 82%
    04:00 +26°C° 0 mm 2 mps 754 mmHg 82%
    05:00 +26°C° 0.1 mm 2 mps 754 mmHg 82%
    06:00 +26°C° 0.1 mm 1 mps 755 mmHg 82%
    07:00 +26°C° 0.1 mm 1 mps 755 mmHg 81%
    08:00 +26°C° 0.1 mm 1 mps 755 mmHg 80%
    09:00 +26°C° 0.1 mm 1 mps 756 mmHg 78%
    10:00 +27°C° 0.1 mm 1 mps 756 mmHg 76%
    11:00 +28°C° 0 mm 2 mps 755 mmHg 72%
    12:00 +29°C° 0 mm 3 mps 755 mmHg 67%
    13:00 +30°C° 0 mm 3 mps 754 mmHg 63%
    14:00 +30°C° 0 mm 3 mps 754 mmHg 62%
    15:00 +30°C° 0 mm 3 mps 753 mmHg 62%
    16:00 +30°C° 0 mm 3 mps 753 mmHg 62%
    17:00 +29°C° 0 mm 3 mps 753 mmHg 66%
    18:00 +28°C° 0 mm 3 mps 754 mmHg 71%
    19:00 +27°C° 0 mm 3 mps 754 mmHg 76%
    20:00 +26°C° 0 mm 3 mps 754 mmHg 77%
    21:00 +26°C° 0 mm 3 mps 755 mmHg 78%
    22:00 +26°C° 0 mm 3 mps 755 mmHg 80%
    23:00 +26°C° 0 mm 3 mps 755 mmHg 80%

    Day after tomorrow, 20 October, Friday

    Time Temperature Precipitation Wind Pressure Humidity
    00:00 +26°C° 0 mm 3 mps 755 mmHg 81%
    01:00 +26°C° 0 mm 3 mps 754 mmHg 81%
    02:00 +26°C° 0 mm 2 mps 754 mmHg 81%
    03:00 +26°C° 0 mm 2 mps 754 mmHg 80%
    04:00 +26°C° 0 mm 2 mps 754 mmHg 80%
    05:00 +26°C° 0 mm 2 mps 755 mmHg 80%
    06:00 +26°C° 0 mm 1 mps 755 mmHg 79%
    07:00 +26°C° 0 mm 1 mps 756 mmHg 79%
    08:00 +27°C° 0 mm 1 mps 756 mmHg 72%
    09:00 +29°C° 0 mm 1 mps 756 mmHg 65%
    10:00 +30°C° 0 mm 1 mps 756 mmHg 58%
    11:00 +31°C° 0 mm 2 mps 756 mmHg 54%
    12:00 +34°C° 0 mm 3 mps 755 mmHg 50%
    13:00 +35°C° 0 mm 4 mps 754 mmHg 47%
    14:00 +34°C° 0 mm 4 mps 753 mmHg 50%
    15:00 +32°C° 0 mm 5 mps 753 mmHg 54%
    16:00 +30°C° 0 mm 5 mps 752 mmHg 58%
    17:00 +29°C° 0 mm 5 mps 753 mmHg 63%
    18:00 +28°C° 0 mm 4 mps 754 mmHg 68%
    19:00 +27°C° 0 mm 4 mps 754 mmHg 72%
    20:00 +27°C° 0 mm 3 mps 755 mmHg 74%
    21:00 +27°C° 0 mm 3 mps 755 mmHg 75%
    22:00 +26°C° 0 mm 3 mps 756 mmHg 77%
    23:00 +26°C° 0 mm 3 mps 755 mmHg 78%

    21 October, Saturday

    Time Temperature Precipitation Wind Pressure Humidity
    00:00 +26°C° 0 mm 3 mps 755 mmHg 79%
    01:00 +26°C° 0 mm 3 mps 755 mmHg 79%
    02:00 +26°C° 0 mm 2 mps 755 mmHg 79%
    03:00 +26°C° 0 mm 2 mps 755 mmHg 78%
    04:00 +26°C° 0 mm 2 mps 754 mmHg 78%
    05:00 +26°C° 0 mm 2 mps 755 mmHg 76%
    06:00 +26°C° 0 mm 2 mps 756 mmHg 75%
    07:00 +27°C° 0 mm 2 mps 756 mmHg 74%
    08:00 +28°C° 0 mm 2 mps 756 mmHg 66%
    09:00 +30°C° 0 mm 2 mps 756 mmHg 58%
    10:00 +32°C° 0 mm 1 mps 756 mmHg 50%
    11:00 +34°C° 0 mm 2 mps 755 mmHg 48%
    12:00 +34°C° 0 mm 3 mps 754 mmHg 46%
    13:00 +35°C° 0 mm 4 mps 753 mmHg 44%
    14:00 +34°C° 0 mm 5 mps 752 mmHg 48%
    15:00 +33°C° 0 mm 5 mps 752 mmHg 52%
    16:00 +32°C° 0 mm 5 mps 752 mmHg 56%
    17:00 +30°C° 0 mm 5 mps 753 mmHg 61%
    18:00 +28°C° 0 mm 5 mps 753 mmHg 67%
    19:00 +27°C° 0 mm 5 mps 754 mmHg 72%
    20:00 +27°C° 0 mm 4 mps 755 mmHg 73%
    21:00 +27°C° 0 mm 4 mps 755 mmHg 75%
    22:00 +26°C° 0 mm 3 mps 756 mmHg 76%
    23:00 +26°C° 0 mm 3 mps 756 mmHg 76%

    22 October, Sunday

    Time Temperature Precipitation Wind Pressure Humidity
    00:00 +26°C° 0 mm 3 mps 755 mmHg 76%
    01:00 +26°C° 0 mm 3 mps 755 mmHg 76%
    02:00 +26°C° 0.1 mm 3 mps 755 mmHg 75%
    03:00 +26°C° 0.1 mm 2 mps 755 mmHg 75%
    04:00 +26°C° 0.1 mm 2 mps 755 mmHg 75%
    05:00 +26°C° 0 mm 2 mps 755 mmHg 73%
    06:00 +26°C° 0 mm 1 mps 756 mmHg 72%
    07:00 +27°C° 0 mm 1 mps 756 mmHg 70%
    08:00 +28°C° 0 mm 1 mps 756 mmHg 62%
    09:00 +30°C° 0 mm 2 mps 756 mmHg 54%
    10:00 +32°C° 0 mm 2 mps 756 mmHg 46%
    11:00 +34°C° 0 mm 3 mps 755 mmHg 44%
    12:00 +34°C° 0 mm 4 mps 754 mmHg 43%
    13:00 +35°C° 0 mm 4 mps 753 mmHg 42%
    14:00 +34°C° 0 mm 5 mps 753 mmHg 46%
    15:00 +33°C° 0 mm 5 mps 752 mmHg 50%
    16:00 +32°C° 0 mm 5 mps 752 mmHg 54%
    17:00 +30°C° 0 mm 5 mps 752 mmHg 60%
    18:00 +28°C° 0 mm 5 mps 753 mmHg 66%
    19:00 +27°C° 0 mm 5 mps 754 mmHg 72%
    20:00 +27°C° 0 mm 5 mps 754 mmHg 73%
    21:00 +27°C° 0 mm 4 mps 754 mmHg 75%
    22:00 +26°C° 0 mm 4 mps 755 mmHg 76%
    23:00 +26°C° 0 mm 4 mps 754 mmHg 76%

    23 October, Monday

    Time Temperature Precipitation Wind Pressure Humidity
    00:00 +26°C° 0 mm 3 mps 754 mmHg 75%
    01:00 +26°C° 0 mm 3 mps 754 mmHg 75%
    02:00 +26°C° 0 mm 2 mps 754 mmHg 74%
    03:00 +26°C° 0 mm 2 mps 754 mmHg 73%
    04:00 +26°C° 0 mm 1 mps 754 mmHg 72%
    05:00 +26°C° 0 mm 1 mps 754 mmHg 70%
    06:00 +27°C° 0 mm 1 mps 755 mmHg 69%
    07:00 +25°C° 0 mm 0 mps 755 mmHg 67%
    08:00 +29°C° 0 mm 1 mps 755 mmHg 60%
    09:00 +30°C° 0 mm 2 mps 755 mmHg 53%
    10:00 +33°C° 0 mm 3 mps 754 mmHg 46%
    11:00 +34°C° 0 mm 4 mps 754 mmHg 44%
    12:00 +35°C° 0 mm 5 mps 753 mmHg 41%
    13:00 +36°C° 0 mm 6 mps 752 mmHg 38%
    14:00 +35°C° 0 mm 6 mps 752 mmHg 43%
    15:00 +34°C° 0 mm 6 mps 751 mmHg 47%
    16:00 +33°C° 0 mm 6 mps 751 mmHg 51%
    17:00 +32°C° 0 mm 6 mps 752 mmHg 57%
    18:00 +29°C° 0 mm 5 mps 752 mmHg 64%
    19:00 +28°C° 0 mm 5 mps 753 mmHg 70%
    20:00 +27°C° 0 mm 5 mps 753 mmHg 72%
    21:00 +27°C° 0 mm 4 mps 754 mmHg 74%
    22:00 +27°C° 0 mm 4 mps 754 mmHg 76%
    23:00 +27°C° 0 mm 3 mps 754 mmHg 76%
    Show more